Philip, SD

4:06 AM MDT on June 27, 2017 (GMT -0600)
Philip

Weather History for KPHP - September, 2013

Change the Weather History Date:

Thursday, September 5, 2013

  Actual Average Record
Temperature  
Mean Temperature 83 °F 67 °F  
Max Temperature 98 °F 83 °F 104 °F (1978)
Min Temperature 68 °F 52 °F 35 °F (1956)
Degree Days  
Heating Degree Days 0 3  
Month to date heating degree days 0 11  
Since 1 July heating degree days 3 36  
Cooling Degree Days 18 5  
Month to date cooling degree days 59 26  
Year to date cooling degree days 822 761  
Growing Degree Days 33 (Base 50)    
Moisture  
Dew Point 62 °F    
Average Humidity 56    
Maximum Humidity 84    
Minimum Humidity 28    
Precipitation  
Precipitation 0.00 in 0.05 in 1.96 in (2004)
Month to date precipitation 0.00 0.24  
Year to date precipitation 10.41 13.62  
Sea Level Pressure  
Sea Level Pressure 29.96 in    
Wind  
Wind Speed 7 mph (East)    
Max Wind Speed 18 mph    
Max Gust Speed 25 mph    
Visibility 10 miles    
Events Thunderstorm    
T = Trace of Precipitation, MM = Missing Value Source: NWS Daily Summary

Daily Weather History Graph

Daily Weather History Graph

Search for Another Location

Airport or City:

Trip Planner

Search our weather history database for the weather conditions in past years. The results will help you decide how hot, cold, wet, or windy it might be!

Date:

Astronomy

Sep. 05, 2013 Rise Set
Actual Time 6:14 AM MDT 7:14 PM MDT
Civil Twilight 5:44 AM MDT 7:44 PM MDT
Nautical Twilight 5:09 AM MDT 8:19 PM MDT
Astronomical Twilight 4:32 AM MDT 8:55 PM MDT
Moon 6:30 AM MDT (9/5) 7:03 PM MDT (9/5)
Length of Visible Light 13h 59m
Length of Day
13h 00m
New Moon, 0% of the Moon is Illuminated
Sep 5
New Moon
Sep 12
First Quarter
Sep 19
Full
Sep 26
Last Quarter
Oct 4
New

Hourly Weather History & Observations

Time (MDT) Temp. Heat Index Dew Point Humidity Pressure Visibility Wind Dir Wind Speed Gust Speed Precip Events Conditions
12:55 AM 71.1 °F - 62.1 °F 73% 29.99 in 10.0 mi East 3.5 mph - N/A   Clear
1:55 AM 69.1 °F - 62.1 °F 78% 29.97 in 10.0 mi ENE 6.9 mph - N/A   Clear
2:55 AM 69.1 °F - 62.1 °F 78% 29.96 in 10.0 mi East 4.6 mph - N/A   Clear
3:55 AM 70.0 °F - 62.1 °F 76% 30.01 in 10.0 mi NW 8.1 mph - N/A   Partly Cloudy
4:09 AM 71.6 °F - 62.6 °F 73% 30.10 in 10.0 mi North 15.0 mph 25.3 mph N/A Thunderstorm Scattered Clouds
4:55 AM 70.0 °F - 64.0 °F 81% 30.02 in 10.0 mi North 6.9 mph 17.3 mph N/A Thunderstorm Clear
5:05 AM 69.8 °F - 64.4 °F 83% 30.10 in 10.0 mi NNE 5.8 mph - N/A   Clear
5:55 AM 70.0 °F - 64.0 °F 81% 30.01 in 10.0 mi ESE 5.8 mph - N/A   Clear
6:55 AM 69.1 °F - 64.0 °F 84% 30.01 in 10.0 mi East 9.2 mph - N/A   Clear
7:55 AM 70.0 °F - 64.0 °F 81% 30.03 in 10.0 mi NE 4.6 mph - N/A   Clear
8:55 AM 72.0 °F - 63.0 °F 73% 30.02 in 10.0 mi East 6.9 mph - N/A   Clear
9:55 AM 79.0 °F - 64.0 °F 60% 30.01 in 10.0 mi ESE 4.6 mph - N/A   Clear
10:55 AM 84.0 °F 84.9 °F 63.0 °F 49% 30.01 in 10.0 mi SSE 10.4 mph - N/A   Clear
11:55 AM 88.0 °F 87.9 °F 61.0 °F 40% 30.00 in 10.0 mi ESE 6.9 mph - N/A   Clear
12:55 PM 93.0 °F 92.7 °F 60.1 °F 33% 29.96 in 10.0 mi ESE 11.5 mph 18.4 mph N/A   Clear
1:55 PM 95.0 °F 94.0 °F 57.9 °F 29% 29.94 in 10.0 mi ESE 11.5 mph 17.3 mph N/A   Clear
2:55 PM 96.1 °F 95.6 °F 59.0 °F 29% 29.92 in 10.0 mi Variable 6.9 mph 21.9 mph N/A   Clear
3:55 PM 97.0 °F 96.5 °F 59.0 °F 28% 29.91 in 10.0 mi Variable 5.8 mph 19.6 mph N/A   Clear
4:55 PM 95.0 °F 94.4 °F 59.0 °F 30% 29.90 in 10.0 mi SE 6.9 mph - N/A   Clear
5:55 PM 91.9 °F 91.8 °F 61.0 °F 35% 29.89 in 10.0 mi East 13.8 mph - N/A   Clear
6:55 PM 88.0 °F 88.4 °F 62.1 °F 42% 29.88 in 10.0 mi East 11.5 mph - N/A   Clear
7:55 PM 84.0 °F 85.8 °F 64.9 °F 53% 29.89 in 10.0 mi East 11.5 mph - N/A   Clear
8:55 PM 80.1 °F 81.9 °F 64.9 °F 60% 29.89 in 10.0 mi ENE 8.1 mph - N/A   Clear
9:55 PM 77.0 °F - 64.9 °F 66% 29.88 in 10.0 mi East 6.9 mph - N/A   Clear
10:55 PM 73.0 °F - 64.0 °F 73% 29.87 in 10.0 mi East 4.6 mph - N/A   Clear
11:55 PM 73.0 °F - 64.0 °F 73% 29.86 in 10.0 mi ENE 3.5 mph - N/A   Clear